Total_Precipitation_Accumulation
0.01 0.01 0.02 0.01 0.01 0.00 0.00 0.00 0.00 0.00 0.00 0.00 0.00 0.00 0.00 0.00 0.00 0.02 0.00 0.00 0.00 0.00 0.02 0.05 0.09 0.14 0.13 0.10 0.07 0.03 0.02 0.03 0.04 0.05 0.07 0.08 0.06 0.05 0.06 0.07 0.10 0.13 0.16 0.20 0.25 0.26 0.24 0.20 0.17
0.02 0.03 0.03 0.02 0.01 0.00 0.00 0.00 0.00 0.00 0.00 0.00 0.00 0.01 0.00 0.00 0.00 0.00 0.00 0.00 0.00 0.00 0.01 0.04 0.07 0.11 0.12 0.09 0.06 0.03 0.03 0.03 0.04 0.05 0.07 0.09 0.07 0.06 0.07 0.08 0.08 0.10 0.12 0.15 0.17 0.13 0.10 0.06 0.06
0.05 0.04 0.05 0.03 0.01 0.00 0.00 0.00 0.00 0.00 0.00 0.00 0.00 0.00 0.00 0.00 0.00 0.00 0.00 0.00 0.00 0.00 0.01 0.04 0.06 0.09 0.11 0.08 0.06 0.04 0.03 0.03 0.03 0.04 0.06 0.10 0.11 0.09 0.07 0.07 0.06 0.06 0.07 0.08 0.07 0.05 0.02 0.01 0.01
0.10 0.10 0.07 0.04 0.01 0.00 0.00 0.00 0.00 0.00 0.00 0.00 0.00 0.00 0.00 0.00 0.00 0.00 0.00 0.00 0.00 0.00 0.01 0.05 0.07 0.08 0.08 0.07 0.06 0.04 0.03 0.03 0.02 0.03 0.04 0.09 0.13 0.13 0.08 0.04 0.03 0.03 0.03 0.04 0.03 0.01 0.01 0.00 0.00
0.19 0.20 0.14 0.06 0.01 0.00 0.00 0.00 0.00 0.00 0.00 0.00 0.00 0.00 0.01 0.00 0.00 0.00 0.00 0.00 0.00 0.00 0.02 0.06 0.08 0.09 0.08 0.07 0.06 0.05 0.03 0.02 0.02 0.02 0.03 0.07 0.11 0.12 0.08 0.03 0.02 0.02 0.02 0.02 0.02 0.01 0.00 0.00 0.00
0.30 0.26 0.18 0.07 0.01 0.00 0.00 0.00 0.00 0.00 0.00 0.00 0.00 0.01 0.02 0.01 0.01 0.01 0.01 0.01 0.01 0.01 0.03 0.07 0.10 0.09 0.08 0.07 0.06 0.04 0.03 0.02 0.01 0.02 0.03 0.05 0.07 0.09 0.07 0.03 0.02 0.02 0.02 0.02 0.01 0.01 0.01 0.01 0.01
0.31 0.26 0.16 0.05 0.01 0.00 0.00 0.00 0.00 0.00 0.00 0.00 0.00 0.02 0.05 0.03 0.02 0.02 0.02 0.03 0.03 0.02 0.03 0.07 0.10 0.10 0.10 0.08 0.06 0.05 0.03 0.02 0.02 0.02 0.03 0.03 0.03 0.05 0.05 0.03 0.02 0.02 0.02 0.02 0.02 0.02 0.02 0.02 0.01
0.25 0.30 0.19 0.06 0.02 0.00 0.00 0.00 0.00 0.00 0.00 0.00 0.00 0.02 0.07 0.04 0.05 0.06 0.05 0.06 0.06 0.05 0.05 0.06 0.08 0.09 0.09 0.08 0.06 0.05 0.03 0.02 0.02 0.02 0.01 0.01 0.01 0.02 0.02 0.02 0.02 0.02 0.02 0.02 0.02 0.02 0.02 0.02 0.02
0.27 0.33 0.21 0.07 0.02 0.01 0.00 0.01 0.00 0.00 0.00 0.00 0.00 0.02 0.03 0.03 0.07 0.10 0.10 0.10 0.10 0.09 0.08 0.06 0.07 0.08 0.08 0.07 0.05 0.04 0.03 0.02 0.01 0.01 0.01 0.00 0.01 0.01 0.01 0.01 0.01 0.01 0.01 0.01 0.01 0.02 0.02 0.01 0.01
0.29 0.23 0.13 0.03 0.01 0.01 0.02 0.01 0.01 0.00 0.00 0.00 0.01 0.02 0.03 0.07 0.12 0.14 0.12 0.10 0.10 0.10 0.09 0.08 0.06 0.06 0.07 0.06 0.05 0.04 0.03 0.01 0.01 0.01 0.01 0.01 0.01 0.01 0.01 0.00 0.00 0.01 0.01 0.01 0.01 0.01 0.01 0.00 0.00
0.15 0.09 0.05 0.03 0.04 0.04 0.04 0.03 0.02 0.01 0.00 0.00 0.01 0.03 0.07 0.15 0.18 0.17 0.17 0.14 0.10 0.08 0.08 0.07 0.07 0.06 0.06 0.05 0.04 0.03 0.02 0.02 0.01 0.00 0.00 0.01 0.01 0.00 0.00 0.00 0.00 0.00 0.00 0.01 0.00 0.00 0.00 0.00 0.00
0.08 0.04 0.04 0.06 0.06 0.05 0.04 0.04 0.04 0.02 0.01 0.00 0.01 0.03 0.06 0.10 0.14 0.16 0.17 0.16 0.14 0.10 0.08 0.08 0.08 0.06 0.05 0.04 0.03 0.02 0.02 0.01 0.01 0.00 0.00 0.00 0.00 0.00 0.00 0.00 0.00 0.00 0.00 0.01 0.00 0.00 0.00 0.00 0.00
0.08 0.04 0.04 0.07 0.09 0.06 0.04 0.04 0.04 0.02 0.01 0.01 0.03 0.06 0.08 0.10 0.15 0.19 0.20 0.20 0.20 0.14 0.11 0.09 0.09 0.08 0.06 0.05 0.03 0.02 0.01 0.01 0.01 0.00 0.00 0.00 0.00 0.00 0.00 0.00 0.00 0.00 0.00 0.00 0.00 0.00 0.00 0.00 0.00
0.07 0.07 0.07 0.08 0.09 0.07 0.06 0.06 0.04 0.02 0.01 0.02 0.05 0.09 0.09 0.10 0.12 0.13 0.15 0.15 0.16 0.17 0.16 0.12 0.10 0.11 0.09 0.06 0.03 0.02 0.02 0.01 0.01 0.01 0.01 0.00 0.00 0.00 0.00 0.00 0.00 0.00 0.00 0.00 0.00 0.00 0.00 0.00 0.00
0.12 0.16 0.14 0.10 0.09 0.07 0.08 0.10 0.06 0.02 0.01 0.02 0.03 0.06 0.07 0.09 0.10 0.08 0.08 0.10 0.13 0.16 0.20 0.17 0.17 0.16 0.11 0.08 0.06 0.03 0.03 0.03 0.03 0.03 0.02 0.01 0.01 0.00 0.00 0.00 0.00 0.00 0.00 0.00 0.00 0.00 0.00 0.00 0.00
0.29 0.31 0.22 0.09 0.08 0.07 0.10 0.09 0.04 0.01 0.01 0.01 0.01 0.03 0.04 0.06 0.07 0.08 0.08 0.08 0.11 0.15 0.16 0.20 0.19 0.18 0.16 0.14 0.11 0.08 0.08 0.08 0.07 0.07 0.05 0.03 0.02 0.01 0.02 0.01 0.00 0.00 0.00 0.00 0.00 0.00 0.00 0.00 0.00
0.44 0.28 0.15 0.07 0.05 0.07 0.07 0.04 0.02 0.02 0.01 0.00 0.01 0.01 0.03 0.05 0.06 0.05 0.07 0.09 0.10 0.14 0.15 0.17 0.17 0.16 0.20 0.25 0.26 0.23 0.20 0.16 0.15 0.12 0.08 0.07 0.06 0.04 0.03 0.02 0.02 0.01 0.01 0.01 0.00 0.00 0.01 0.00 0.00
0.26 0.12 0.08 0.06 0.04 0.05 0.04 0.01 0.01 0.01 0.01 0.00 0.00 0.00 0.01 0.02 0.03 0.03 0.04 0.07 0.09 0.14 0.19 0.18 0.18 0.20 0.29 0.38 0.40 0.37 0.33 0.25 0.22 0.18 0.15 0.14 0.11 0.09 0.07 0.05 0.03 0.02 0.01 0.01 0.01 0.01 0.01 0.01 0.01
0.22 0.14 0.08 0.04 0.04 0.05 0.03 0.01 0.01 0.01 0.01 0.01 0.00 0.00 0.00 0.01 0.01 0.02 0.03 0.06 0.08 0.11 0.14 0.16 0.18 0.20 0.25 0.28 0.28 0.27 0.27 0.30 0.31 0.28 0.28 0.25 0.20 0.17 0.13 0.09 0.07 0.05 0.04 0.03 0.03 0.03 0.03 0.03 0.02
0.34 0.27 0.15 0.08 0.05 0.07 0.04 0.01 0.01 0.01 0.01 0.01 0.00 0.00 0.00 0.00 0.01 0.01 0.02 0.03 0.05 0.08 0.09 0.12 0.14 0.19 0.20 0.21 0.27 0.31 0.38 0.44 0.45 0.41 0.34 0.30 0.28 0.26 0.20 0.14 0.13 0.12 0.09 0.06 0.06 0.07 0.06 0.05 0.05
0.41 0.30 0.22 0.13 0.08 0.08 0.08 0.05 0.01 0.00 0.00 0.00 0.01 0.00 0.00 0.00 0.00 0.01 0.02 0.03 0.03 0.05 0.06 0.08 0.11 0.14 0.17 0.22 0.33 0.40 0.44 0.40 0.38 0.32 0.28 0.29 0.31 0.32 0.29 0.25 0.22 0.19 0.17 0.12 0.12 0.14 0.14 0.15 0.15
0.45 0.23 0.24 0.23 0.21 0.16 0.10 0.08 0.01 0.00 0.00 0.00 0.00 0.00 0.00 0.00 0.00 0.00 0.01 0.01 0.02 0.04 0.06 0.08 0.10 0.11 0.13 0.18 0.19 0.23 0.27 0.26 0.26 0.31 0.35 0.38 0.37 0.36 0.34 0.33 0.30 0.28 0.25 0.22 0.24 0.28 0.29 0.28 0.24
0.43 0.25 0.27 0.31 0.33 0.28 0.14 0.09 0.02 0.00 0.00 0.00 0.00 0.00 0.00 0.00 0.00 0.00 0.00 0.01 0.01 0.03 0.05 0.06 0.07 0.08 0.10 0.13 0.14 0.18 0.20 0.23 0.27 0.29 0.31 0.33 0.33 0.33 0.34 0.35 0.36 0.35 0.33 0.35 0.39 0.40 0.40 0.39 0.37
0.49 0.49 0.52 0.51 0.61 0.55 0.16 0.09 0.03 0.00 0.00 0.00 0.00 0.00 0.00 0.00 0.00 0.00 0.00 0.00 0.00 0.01 0.02 0.04 0.05 0.05 0.06 0.09 0.11 0.14 0.16 0.21 0.23 0.24 0.25 0.28 0.31 0.30 0.30 0.32 0.35 0.38 0.40 0.41 0.45 0.49 0.52 0.53 0.53
0.75 1.03 1.32 1.17 0.92 0.41 0.09 0.08 0.03 0.00 0.00 0.00 0.00 0.00 0.00 0.00 0.00 0.00 0.00 0.00 0.00 0.01 0.01 0.02 0.04 0.05 0.05 0.07 0.08 0.10 0.13 0.19 0.20 0.22 0.24 0.26 0.26 0.23 0.26 0.32 0.36 0.41 0.45 0.49 0.50 0.50 0.51 0.56 0.61
0.72 0.88 1.02 0.77 0.39 0.14 0.06 0.04 0.01 0.00 0.00 0.00 0.00 0.00 0.00 0.00 0.00 0.00 0.00 0.00 0.00 0.00 0.00 0.01 0.02 0.03 0.04 0.06 0.07 0.07 0.08 0.12 0.14 0.17 0.18 0.21 0.23 0.27 0.31 0.34 0.37 0.39 0.41 0.44 0.45 0.47 0.49 0.55 0.60
0.68 0.66 0.56 0.65 0.39 0.18 0.07 0.02 0.00 0.00 0.00 0.00 0.00 0.00 0.00 0.00 0.00 0.00 0.00 0.00 0.00 0.00 0.00 0.01 0.01 0.02 0.04 0.05 0.06 0.06 0.06 0.07 0.10 0.11 0.12 0.15 0.18 0.21 0.24 0.28 0.30 0.31 0.33 0.35 0.38 0.40 0.41 0.44 0.48
0.60 0.53 0.67 0.92 0.66 0.32 0.08 0.01 0.00 0.00 0.00 0.00 0.00 0.00 0.00 0.00 0.00 0.00 0.00 0.00 0.00 0.00 0.01 0.01 0.01 0.02 0.04 0.05 0.05 0.05 0.05 0.06 0.08 0.09 0.08 0.09 0.12 0.14 0.17 0.19 0.21 0.23 0.24 0.24 0.26 0.26 0.26 0.29 0.32
0.54 0.65 0.75 0.74 0.49 0.39 0.19 0.04 0.01 0.01 0.01 0.01 0.00 0.00 0.00 0.00 0.00 0.00 0.00 0.00 0.00 0.01 0.01 0.02 0.02 0.03 0.04 0.05 0.05 0.05 0.05 0.06 0.07 0.07 0.08 0.09 0.10 0.10 0.11 0.13 0.15 0.15 0.15 0.15 0.15 0.16 0.16 0.18 0.22
0.43 0.40 0.51 0.74 0.51 0.32 0.24 0.08 0.02 0.02 0.02 0.02 0.02 0.02 0.01 0.01 0.00 0.00 0.00 0.00 0.01 0.02 0.02 0.03 0.03 0.04 0.04 0.04 0.05 0.06 0.06 0.06 0.07 0.07 0.07 0.07 0.08 0.08 0.08 0.08 0.09 0.10 0.10 0.10 0.10 0.10 0.11 0.13 0.15